Location: Sternwarte auf dem Internationalen Platz Vogelsang IP
(50.5721°N, 6.4398°E)
Time: 08:21:27
(UTC+01:00)

Tiros 1 despin weight - All Passes

Search period start: 07 December 2025 00:00
Search period end: 17 December 2025 00:00
Orbit: 559 x 596 km, 48.2° (Epoch: 06 December)

Date Brightness Start Highest point End Pass type
(mag) Time Alt. Az. Time Alt. Az. Time Alt. Az.
07 Dec - 00:07:36 10° W 00:11:44 55° SSW 00:15:51 10° ESE night (unlit)
07 Dec - 01:48:25 10° W 01:51:52 25° SSW 01:55:18 10° SSE night (unlit)
07 Dec - 19:12:35 10° SSE 19:14:21 12° SE 19:16:07 10° ESE visible
07 Dec - 20:50:14 10° SW 20:54:09 37° SSE 20:58:05 10° E visible
07 Dec - 22:30:17 10° WSW 22:34:29 63° S 22:38:39 10° E night (unlit)
08 Dec - 00:10:48 10° W 00:14:52 47° SSW 00:18:55 10° ESE night (unlit)
08 Dec - 01:51:56 10° W 01:54:51 18° SW 01:57:46 10° S night (unlit)
08 Dec - 19:14:26 10° S 19:17:17 18° SE 19:20:07 10° ESE visible
08 Dec - 20:53:10 10° SW 20:57:15 46° SSE 21:01:18 10° E visible
08 Dec - 22:33:26 10° W 22:37:38 64° S 22:41:49 10° ESE night (unlit)
09 Dec - 00:14:02 10° W 00:17:58 39° SSW 00:21:54 10° SE night (unlit)
09 Dec - 01:55:49 10° WSW 01:57:47 13° SW 01:59:46 10° SSW night (unlit)
09 Dec - 19:16:48 10° SSW 19:20:15 24° SSE 19:23:39 10° E visible
09 Dec - 20:56:12 10° WSW 21:00:22 54° SSE 21:04:30 10° E visible
09 Dec - 22:36:36 10° W 22:40:47 60° S 22:44:56 10° ESE night (unlit)
10 Dec - 00:17:17 10° W 00:21:00 31° SSW 00:24:43 10° SE night (unlit)
10 Dec - 19:19:27 10° SW 19:23:15 31° SSE 19:27:00 10° E visible
10 Dec - 20:59:16 10° WSW 21:03:29 60° S 21:07:39 10° E visible
10 Dec - 22:39:45 10° W 22:43:54 54° SSW 22:48:00 10° ESE night (unlit)
11 Dec - 00:20:38 10° W 00:24:00 23° SSW 00:27:22 10° SSE night (unlit)
11 Dec - 17:44:19 10° S 17:46:25 13° SE 17:48:31 10° ESE visible
11 Dec - 19:22:16 10° SW 19:26:16 39° SSE 19:30:14 10° E visible
11 Dec - 21:02:22 10° WSW 21:06:36 64° S 21:10:47 10° E visible
11 Dec - 22:42:55 10° W 22:46:59 46° SSW 22:51:01 10° SE night (unlit)
12 Dec - 00:24:08 10° WSW 00:26:56 17° SW 00:29:43 10° S night (unlit)
12 Dec - 17:46:17 10° S 17:49:19 19° SE 17:52:19 10° E visible
12 Dec - 19:25:11 10° WSW 19:29:19 48° SSE 19:33:24 10° E visible
12 Dec - 21:05:29 10° W 21:09:43 64° S 21:13:54 10° ESE visible
12 Dec - 22:46:06 10° W 22:50:01 37° SSW 22:53:55 10° SE night (unlit)
13 Dec - 00:28:06 10° WSW 00:29:48 12° SW 00:31:29 10° SSW night (unlit)
13 Dec - 17:48:41 10° SSW 17:52:14 25° SSE 17:55:45 10° E visible
13 Dec - 19:28:10 10° WSW 19:32:22 56° SSE 19:36:32 10° E visible
13 Dec - 21:08:36 10° W 21:12:48 60° S 21:16:58 10° ESE visible
13 Dec - 22:49:18 10° W 22:53:01 29° SSW 22:56:40 10° SSE night (unlit)
14 Dec - 17:51:19 10° SW 17:55:11 32° SSE 17:59:01 10° E visible
14 Dec - 19:31:12 10° WSW 19:35:27 62° S 19:39:39 10° E visible
14 Dec - 21:11:42 10° W 21:15:52 53° SSW 21:19:58 10° ESE visible
14 Dec - 22:52:37 10° W 22:55:56 22° SSW 22:59:14 10° SSE night (unlit)
15 Dec - 16:15:56 10° S 16:18:18 14° SE 16:20:39 10° ESE daylight
15 Dec - 17:54:06 10° SW 17:58:10 41° SSE 18:02:11 10° E visible
15 Dec - 19:34:16 10° W 19:38:31 64° S 19:42:44 10° E visible
15 Dec - 21:14:49 10° W 21:18:53 44° SSW 21:22:56 10° SE visible
15 Dec - 22:56:08 10° WSW 22:58:48 16° SW 23:01:28 10° S night (unlit)
16 Dec - 16:17:58 10° SSW 16:21:08 20° SE 16:24:18 10° E daylight
16 Dec - 17:57:00 10° WSW 18:01:10 49° SSE 18:05:18 10° E visible
16 Dec - 19:37:19 10° W 19:41:34 63° S 19:45:47 10° ESE visible
16 Dec - 21:17:57 10° W 21:21:52 36° SSW 21:25:45 10° SE visible
16 Dec - 23:00:13 10° WSW 23:01:37 11° SW 23:03:01 10° SSW night (unlit)
